Total_Precipitation_Accumulation
1.99 2.31 2.78 3.49 3.95 4.12 4.20 4.39 4.44 4.54 4.58 4.61 4.62 4.78 4.95 4.97 4.95 5.07 5.11 5.00 4.95 5.12 5.51 5.56 5.41 5.05 4.73 4.57 4.58 4.61 4.40 4.08 3.90 3.96 3.77 3.37 3.02 2.92 2.80 2.77 2.80 2.69 2.73
1.87 2.31 2.80 3.28 3.56 3.94 4.13 4.37 4.40 4.57 4.86 5.28 5.81 6.08 6.21 6.05 5.85 5.75 5.71 5.57 5.48 5.62 5.74 5.87 5.56 5.19 4.99 4.72 4.48 4.47 4.33 4.03 3.97 4.06 4.16 3.71 3.41 2.88 2.48 2.58 2.63 2.67 2.74
1.86 2.22 2.45 2.86 3.17 3.56 3.91 4.17 4.52 4.90 5.42 6.11 6.94 7.28 7.06 6.60 6.37 6.08 6.02 5.76 5.53 5.52 5.70 5.48 5.24 5.04 4.81 4.59 4.40 4.43 4.41 4.06 3.90 4.02 4.30 3.99 3.59 3.18 2.82 2.56 2.48 2.61 2.69
1.86 2.03 2.27 2.60 2.83 3.18 3.66 4.14 4.68 5.25 5.94 6.60 7.06 7.30 7.20 6.93 6.62 6.15 5.76 5.37 5.05 4.88 4.82 4.74 4.52 4.44 4.30 4.15 3.93 4.00 4.12 4.06 3.79 3.73 3.54 3.48 3.39 3.35 3.04 2.75 2.57 2.57 2.62
1.75 1.85 2.02 2.29 2.63 3.09 3.58 4.10 4.59 5.29 5.80 6.35 6.77 7.06 7.07 6.98 6.61 5.88 5.23 4.80 4.43 4.18 3.90 3.73 3.69 3.68 3.64 3.46 3.28 3.32 3.39 3.37 3.36 3.35 3.19 3.18 3.16 3.08 2.96 2.84 2.77 2.72 2.57
1.81 1.85 1.90 2.09 2.60 3.07 3.62 3.99 4.33 5.05 5.73 6.23 6.60 6.88 6.88 6.71 6.08 5.34 4.77 4.36 4.04 3.77 3.49 3.34 3.24 3.23 3.15 2.98 2.85 2.84 2.85 2.87 2.90 3.01 3.02 2.96 2.88 2.82 2.88 2.70 2.63 2.64 2.51
1.73 1.73 1.95 2.18 2.77 3.25 3.50 3.75 4.03 4.47 4.96 5.42 5.74 5.92 5.94 5.70 5.27 4.86 4.40 4.01 3.76 3.49 3.13 2.79 2.66 2.62 2.70 2.71 2.69 2.66 2.59 2.60 2.63 2.60 2.60 2.62 2.55 2.61 2.76 2.76 2.61 2.51 2.41
1.65 1.63 1.89 2.16 2.39 2.70 3.00 3.30 3.54 3.83 4.10 4.31 4.57 4.51 4.49 4.45 4.26 3.91 3.51 3.22 2.93 2.75 2.58 2.35 2.22 2.21 2.30 2.38 2.49 2.42 2.27 2.27 2.40 2.41 2.53 2.49 2.44 2.57 2.60 2.75 2.88 2.82 2.58
1.58 1.66 1.88 2.06 2.16 2.36 2.63 2.82 2.97 3.23 3.37 3.34 3.31 3.28 3.20 3.24 3.25 3.11 2.80 2.48 2.24 2.09 2.05 2.01 1.99 1.84 1.91 2.07 2.17 2.14 2.09 2.15 2.19 2.22 2.36 2.39 2.37 2.46 2.44 2.59 2.83 3.07 2.97
1.62 1.69 1.83 2.07 2.17 2.18 2.39 2.55 2.54 2.62 2.75 2.80 2.64 2.48 2.54 2.62 2.62 2.55 2.33 2.12 1.92 1.76 1.69 1.71 1.68 1.58 1.60 1.75 1.89 1.92 2.02 2.12 2.06 2.04 2.10 2.12 2.11 2.31 2.42 2.46 2.62 2.89 3.06
1.76 1.84 1.85 1.94 2.00 2.01 2.09 2.21 2.24 2.27 2.30 2.36 2.36 2.26 2.17 2.11 2.10 2.13 2.06 1.91 1.80 1.69 1.64 1.56 1.58 1.59 1.53 1.59 1.71 1.72 1.81 1.93 1.94 1.89 1.85 1.86 2.02 2.15 2.16 2.27 2.40 2.66 2.97
1.93 2.00 1.98 1.90 1.93 2.09 2.21 2.14 2.12 2.11 2.12 2.09 2.13 2.17 1.97 1.86 1.82 1.81 1.78 1.67 1.63 1.61 1.57 1.52 1.51 1.50 1.49 1.51 1.54 1.51 1.57 1.71 1.71 1.69 1.71 1.59 1.69 1.90 2.00 2.13 2.20 2.38 2.61
2.13 2.23 2.12 1.91 1.86 1.94 2.00 1.89 1.81 1.80 1.67 1.63 1.77 1.87 1.70 1.57 1.59 1.56 1.55 1.55 1.48 1.45 1.38 1.36 1.32 1.29 1.36 1.42 1.47 1.48 1.50 1.49 1.50 1.57 1.57 1.56 1.72 1.80 1.95 2.06 2.12 2.29 2.36
2.07 2.20 2.22 2.01 1.92 1.81 1.78 1.70 1.59 1.56 1.53 1.49 1.50 1.54 1.54 1.50 1.46 1.43 1.42 1.40 1.33 1.29 1.21 1.15 1.15 1.19 1.20 1.20 1.24 1.30 1.36 1.42 1.44 1.49 1.51 1.54 1.63 1.75 1.97 2.03 2.17 2.35 2.48
2.11 2.24 2.17 2.00 1.95 1.90 1.85 1.63 1.52 1.49 1.47 1.50 1.50 1.46 1.45 1.40 1.40 1.38 1.35 1.28 1.26 1.19 1.16 1.12 1.11 1.12 1.13 1.05 1.09 1.23 1.30 1.44 1.50 1.49 1.46 1.43 1.46 1.60 1.74 1.80 2.07 2.37 2.54
2.11 2.10 2.04 2.00 1.97 1.94 1.87 1.63 1.46 1.40 1.46 1.53 1.53 1.47 1.43 1.38 1.37 1.39 1.38 1.35 1.37 1.35 1.26 1.23 1.18 1.12 0.98 1.04 1.09 1.15 1.30 1.43 1.47 1.55 1.51 1.34 1.30 1.34 1.40 1.48 1.60 1.94 2.23
2.35 2.26 2.18 2.20 2.21 2.06 1.87 1.74 1.54 1.43 1.44 1.46 1.45 1.51 1.47 1.37 1.32 1.31 1.41 1.41 1.45 1.41 1.35 1.28 1.22 1.16 1.10 1.10 1.03 1.04 1.17 1.38 1.47 1.54 1.58 1.39 1.22 1.33 1.36 1.36 1.34 1.47 1.73
2.31 2.26 2.22 2.26 2.23 2.08 1.96 1.83 1.59 1.46 1.42 1.39 1.32 1.38 1.39 1.38 1.33 1.35 1.42 1.45 1.51 1.51 1.38 1.27 1.24 1.29 1.10 1.04 0.98 1.03 1.13 1.33 1.43 1.43 1.45 1.51 1.47 1.30 1.32 1.41 1.49 1.59 1.70
2.16 2.16 2.16 2.22 2.19 2.08 1.97 1.83 1.64 1.46 1.36 1.31 1.27 1.21 1.18 1.20 1.24 1.26 1.35 1.51 1.55 1.50 1.33 1.22 1.24 1.22 1.03 0.93 0.89 0.91 1.04 1.24 1.31 1.24 1.19 1.23 1.27 1.21 1.25 1.44 1.69 1.86 2.01
1.97 1.97 1.99 2.04 2.06 2.00 1.93 1.87 1.76 1.55 1.36 1.21 1.10 1.12 1.17 1.18 1.18 1.24 1.35 1.37 1.42 1.41 1.29 1.18 1.17 1.11 0.99 0.89 0.80 0.81 0.88 1.04 1.11 1.17 1.14 1.16 1.15 1.14 1.22 1.44 1.81 2.02 2.09
1.85 1.74 1.67 1.70 1.79 1.79 1.75 1.74 1.64 1.44 1.19 1.06 1.01 1.07 1.09 1.12 1.10 1.23 1.27 1.27 1.24 1.32 1.31 1.25 1.15 1.06 0.93 0.79 0.74 0.73 0.74 0.85 0.99 1.06 1.12 1.15 1.13 1.08 1.18 1.41 1.69 1.91 1.97
1.75 1.62 1.55 1.43 1.39 1.42 1.54 1.58 1.42 1.18 1.03 0.97 0.94 0.95 0.96 0.90 0.89 1.16 1.27 1.26 1.32 1.27 1.20 1.23 1.17 1.01 0.88 0.71 0.59 0.58 0.62 0.73 0.97 1.08 1.08 1.11 1.14 1.11 1.23 1.34 1.63 1.92 2.07
1.59 1.49 1.38 1.26 1.14 1.18 1.26 1.24 1.17 1.02 0.88 0.91 0.94 0.90 0.86 0.92 0.89 0.95 1.03 1.09 1.19 1.13 1.03 1.03 1.02 0.89 0.77 0.64 0.52 0.47 0.50 0.62 0.76 0.94 1.07 1.06 1.02 1.17 1.44 1.60 1.77 1.99 2.16
1.45 1.34 1.31 1.25 1.13 1.04 0.99 0.96 0.86 0.86 0.87 0.93 0.98 0.96 0.91 0.92 0.89 0.86 0.84 0.79 0.83 0.88 0.94 0.95 0.92 0.87 0.79 0.61 0.47 0.46 0.49 0.56 0.64 0.78 0.99 1.14 1.20 1.36 1.66 1.89 2.01 2.07 2.05
1.27 1.19 1.30 1.26 1.14 1.00 0.91 0.82 0.75 0.79 0.97 1.00 0.95 0.94 0.89 0.84 0.84 0.78 0.75 0.69 0.67 0.72 0.77 0.80 0.83 0.81 0.71 0.55 0.51 0.46 0.46 0.53 0.62 0.76 0.97 1.15 1.26 1.47 1.71 1.85 1.87 1.87 1.83
1.11 1.10 1.19 1.17 1.07 0.98 0.95 0.84 0.75 0.74 0.85 0.93 0.90 0.83 0.81 0.76 0.70 0.67 0.63 0.56 0.50 0.53 0.55 0.56 0.56 0.55 0.56 0.56 0.52 0.47 0.52 0.60 0.70 0.82 1.07 1.25 1.36 1.54 1.66 1.77 1.74 1.67 1.65